Track ORBCOMM FM 107 now! 10-day predictions ORBCOMM FM 107 is classified as:
1 40087U 14040B 22183.35705945 .00000064 00000-0 52860-4 0 9997 2 40087 47.0070 66.9052 0002104 15.9122 344.1828 14.55094866423595